Back to catalog

QIANFAN-101

AliveCommunicationsPO
NORAD 66043·PAYLOAD·🇨🇳 China

Launched Oct 17, 2025 from Taiyuan Satellite Launch Center

Loading…

Next Passes (next 24 hours)

TLE

FreshSource: Space-Track

Epoch: Sep 14, 2026, 01:53 UTC

1 66043U 25233L   26257.07892415  .00000332  00000-0  13082-3 0  9997
2 66043  89.0052  30.3654 0014186 204.8490 155.2023 14.26858822 47301

Track QIANFAN-101 in real time with AllMySat

Download on the App Store